HST
1 20580U 90037B   24116.83160051  .00011834  00000-0  57338-3 0  9998
2 20580  28.4692 335.7135 0002496 183.0790 176.9787 15.16967532669072
ISS (ZARYA)
1 25544U 98067A   24117.41380748  .00034303  00000-0  59428-3 0  9994
2 25544  51.6383 212.1176 0003899 114.6316   9.3095 15.50568597450511
CXO
1 25867U 99040B   24117.62037562  .00000975  00000-0  00000-0 0  9997
2 25867  40.0197 158.9023 8934821 292.7482   0.0244  0.37814089 14373